Weather History for Texarkana, AR

Change the Weather History Date:

Tuesday, March 5, 2013

  Actual Average Record
Temperature  
Mean Temperature 53 °F 53 °F  
Max Temperature 64 °F 64 °F 87 °F (1991)
Min Temperature 41 °F 42 °F 24 °F (1960)
Degree Days  
Heating Degree Days 12 12  
Month to date heating degree days 81 64  
Since 1 July heating degree days 2027 2258  
Cooling Degree Days 0 0  
Month to date cooling degree days 0 0  
Year to date cooling degree days 4 4  
Growing Degree Days 2 (Base 50)    
Moisture  
Dew Point 30 °F    
Average Humidity 54    
Maximum Humidity 84    
Minimum Humidity 23    
Precipitation  
Precipitation 0.00 in 0.14 in 1.80 in (1935)
Month to date precipitation 0.00 0.70  
Year to date precipitation 5.45 8.09  
Snow  
Snow 0.00 in - - ()
Month to date snowfall 0.0  
Since 1 July snowfall 2.1  
Snow Depth 0.00 in    
Sea Level Pressure  
Sea Level Pressure 30.15 in    
Wind  
Wind Speed 13 mph (NW)    
Max Wind Speed 24 mph    
Max Gust Speed 32 mph    
Visibility 10 miles    
Events      
T = Trace of Precipitation, MM = Missing Value Source: NWS Daily Summary

Daily Weather History Graph

Daily Weather History Graph

Search for Another Location

Airport:

Trip Planner

Search our weather history database for the weather conditions in past years. The results will help you decide how hot, cold, wet, or windy it might be!

Date:

Astronomy

Mar. 05, 2013 Rise Set
Actual Time 6:38 AM CST 6:16 PM CST
Civil Twilight 6:14 AM CST 6:41 PM CST
Nautical Twilight 5:45 AM CST 7:09 PM CST
Astronomical Twilight 5:16 AM CST 7:38 PM CST
Moon 1:39 AM CST (3/5) 12:08 PM CST (3/5)
Length of Visible Light 12h 27m
Length of Day
11h 37m
Last Quarter, 40% of the Moon is Illuminated
Mar 5
Last Quarter
Mar 11
New
Mar 19
First Quarter
Mar 27
Full
Apr 2
Last Quarter

Hourly Weather History & Observations

Time (CST) Temp. Windchill Dew Point Humidity Pressure Visibility Wind Dir Wind Speed Gust Speed Precip Events Conditions
1:53 AM 62.1 °F - 57.9 °F 86% 29.77 in 10.0 mi SSE 4.6 mph - N/A   Overcast
2:53 AM 63.0 °F - 57.0 °F 81% 29.79 in 10.0 mi West 11.5 mph - N/A   Overcast
3:53 AM 55.9 °F - 45.0 °F 67% 29.86 in 10.0 mi WNW 20.7 mph 28.8 mph N/A   Mostly Cloudy
4:53 AM 51.1 °F - 39.0 °F 63% 29.93 in 10.0 mi NNW 17.3 mph 27.6 mph N/A   Mostly Cloudy
7:53 AM 46.9 °F - 36.0 °F 66% 30.10 in 10.0 mi NW 17.3 mph 26.5 mph N/A   Mostly Cloudy
8:53 AM 48.9 °F - 35.1 °F 59% 30.16 in 10.0 mi NNW 15.0 mph 25.3 mph N/A   Clear
9:53 AM 51.1 °F - 34.0 °F 52% 30.17 in 10.0 mi NW 16.1 mph 26.5 mph N/A   Partly Cloudy
10:53 AM 53.1 °F - 30.9 °F 43% 30.19 in 10.0 mi WNW 19.6 mph 24.2 mph N/A   Clear
11:53 AM 55.0 °F - 30.0 °F 38% 30.19 in 10.0 mi NW 13.8 mph 27.6 mph N/A   Clear
12:53 PM 57.0 °F - 28.0 °F 33% 30.19 in 10.0 mi WNW 17.3 mph 29.9 mph N/A   Clear
1:53 PM 57.0 °F - 21.9 °F 26% 30.18 in 10.0 mi NW 20.7 mph 32.2 mph N/A   Clear
2:53 PM 57.0 °F - 19.9 °F 24% 30.19 in 10.0 mi NNW 16.1 mph 27.6 mph N/A   Clear
3:53 PM 55.9 °F - 19.0 °F 24% 30.20 in 10.0 mi WNW 16.1 mph 26.5 mph N/A   Clear
4:53 PM 55.0 °F - 19.9 °F 25% 30.20 in 10.0 mi WNW 12.7 mph 20.7 mph N/A   Clear
5:53 PM 52.0 °F - 19.9 °F 28% 30.23 in 10.0 mi WNW 13.8 mph - N/A   Clear
6:53 PM 48.9 °F - 19.9 °F 32% 30.25 in 10.0 mi NW 10.4 mph - N/A   Clear
7:53 PM 46.9 °F - 21.9 °F 37% 30.27 in 10.0 mi NW 8.1 mph - N/A   Clear
8:53 PM 44.1 °F 40.1 °F 23.0 °F 43% 30.30 in 10.0 mi NW 6.9 mph - N/A   Clear
9:53 PM 43.0 °F 39.5 °F 21.9 °F 43% 30.32 in 10.0 mi NW 5.8 mph - N/A   Clear
10:53 PM 42.1 °F 40.2 °F 21.9 °F 45% 30.32 in 10.0 mi WNW 3.5 mph - N/A   Clear
11:53 PM 41.0 °F 37.1 °F 21.9 °F 47% 30.32 in 10.0 mi NW 5.8 mph - N/A   Clear